Wind_Speed
2 2 1 1 1 2 3 4 5 6 6 6 7 7 9 9 10 11 11 12 12 13 14 16 16 17 17 18 17 16 14 13 11 9 7 5 3 3 5 6 9 11 13
2 1 1 1 1 2 2 3 4 5 5 6 6 7 8 9 10 11 11 12 13 13 14 15 16 16 17 17 16 15 14 13 12 10 8 5 4 3 3 5 8 10 12
2 1 1 0 0 1 2 3 4 5 5 6 6 7 8 9 10 11 12 12 13 13 14 15 16 16 17 17 16 15 14 13 12 11 9 6 4 3 2 4 6 9 11
2 2 1 0 0 1 2 2 3 4 5 5 6 7 8 9 9 10 11 12 13 13 14 15 16 16 17 17 16 15 14 13 12 11 9 7 5 3 2 3 5 7 10
2 1 1 1 0 1 1 2 3 4 5 5 6 7 8 8 9 10 11 12 13 13 14 14 15 16 16 16 16 16 15 14 12 11 10 8 6 4 2 2 4 5 8
1 1 1 1 1 0 1 2 4 4 4 5 6 6 7 8 9 10 11 12 13 13 13 14 15 15 16 16 15 16 15 14 13 11 10 9 7 5 4 2 3 4 6
1 1 2 2 1 1 1 2 3 4 5 5 6 7 8 8 9 10 11 12 13 13 13 14 14 15 15 15 15 15 15 14 14 12 11 10 9 7 5 3 3 4 6
2 2 2 2 2 2 2 2 3 4 5 6 7 7 8 9 10 10 11 12 13 14 14 14 14 15 15 15 15 15 15 15 14 14 12 11 10 8 6 5 5 5 7
2 2 3 3 2 2 1 2 3 4 4 5 6 8 9 9 10 10 11 12 14 14 14 14 15 15 15 16 16 16 16 15 15 15 14 13 12 10 9 7 7 7 8
3 3 3 2 2 1 0 1 2 3 4 5 6 7 9 10 10 11 12 13 14 14 14 15 15 15 16 16 16 16 16 16 16 16 16 14 13 12 11 10 9 9 9
4 3 3 2 2 2 2 2 3 4 5 5 6 8 9 10 11 12 13 14 15 16 15 15 15 16 16 16 17 17 17 17 17 17 17 16 15 14 13 12 12 11 11
4 4 3 3 3 3 3 4 4 5 6 7 8 9 10 11 12 13 14 15 16 17 17 17 17 17 17 17 18 18 18 18 18 18 18 18 17 17 15 15 15 14 14
5 5 4 4 4 5 5 6 6 7 8 8 9 10 11 12 13 14 16 16 17 18 18 18 18 19 19 20 20 20 20 20 21 20 20 20 20 20 19 18 18 17 17
6 6 6 6 6 7 7 8 8 9 10 10 11 12 13 14 15 16 17 18 18 19 19 19 19 20 20 21 22 22 22 23 23 24 24 23 23 22 22 22 21 21 20
7 8 8 8 8 9 9 10 10 11 11 12 13 14 15 16 17 18 19 20 20 21 21 21 21 21 22 23 24 24 25 25 26 26 27 27 27 26 25 25 24 23 23
9 9 9 9 10 10 11 11 12 13 14 14 15 16 17 18 19 20 21 22 23 23 23 23 23 24 25 25 26 27 28 28 29 30 30 31 30 30 29 28 28 27 27
11 11 11 11 12 12 13 13 14 15 16 17 18 19 20 21 22 23 24 25 25 26 26 26 27 27 28 29 30 31 32 32 33 33 34 34 34 33 32 31 31 31 31
12 12 13 13 14 14 15 16 17 18 19 20 20 21 22 23 24 25 27 27 28 29 29 30 30 31 32 33 34 35 36 37 37 38 38 39 38 37 36 35 35 34 34
14 14 14 15 16 16 17 18 19 20 21 22 23 24 25 26 27 28 29 31 32 32 32 33 33 35 36 37 38 39 40 41 42 43 43 43 43 42 41 40 39 37 37
16 16 16 17 18 19 20 21 22 23 24 25 26 27 28 29 30 31 33 34 35 35 36 37 37 38 40 41 43 44 45 46 46 47 47 47 47 46 45 44 43 42 41
18 18 19 20 21 22 23 24 25 26 27 28 29 30 31 32 33 35 36 37 38 39 40 41 42 43 44 46 47 48 49 50 50 50 50 50 50 49 48 48 47 46 45
20 21 22 23 25 26 26 27 28 29 30 31 32 33 34 35 36 38 39 41 42 42 43 44 46 47 49 50 51 52 53 54 54 54 53 52 51 51 50 50 49 49 48
23 24 25 27 28 28 29 30 31 32 33 34 35 36 37 38 40 41 43 44 45 46 47 48 49 51 52 54 55 56 56 56 57 56 55 53 52 52 51 51 50 50 50
26 27 28 29 30 31 32 33 34 35 36 37 38 39 40 42 43 45 46 47 49 50 51 52 53 54 56 57 58 58 58 58 59 57 56 55 54 54 53 52 51 51 51
29 30 31 32 33 34 35 37 37 38 39 40 41 42 43 45 46 47 49 50 52 54 55 56 57 57 58 59 60 61 60 60 61 59 57 56 56 55 54 52 52 51 51
33 33 34 35 36 37 38 39 40 41 41 42 43 45 46 47 48 50 52 53 55 57 58 59 60 60 62 62 63 62 62 62 61 59 57 56 56 55 52 50 49 49 49
Wind_Direction
250 262 257 291 342 349 350 353 349 350 351 353 352 354 357 358 357 358 358 358 359 359 359 360 359 360 1 2 3 4 6 8 8 6 358 348 320 277 240 225 219 217 213
252 259 253 295 349 354 352 354 352 350 351 353 353 356 358 359 360 359 358 360 360 359 359 0 1 1 2 4 6 7 10 13 14 14 11 3 346 309 244 231 225 219 215
238 240 253 232 357 352 348 354 357 354 356 356 357 0 2 1 1 1 2 2 0 1 3 3 5 6 6 7 8 10 12 13 15 15 15 10 0 342 270 237 228 222 218
212 235 269 258 346 2 2 6 4 3 360 357 359 2 3 2 1 1 0 360 360 1 2 4 5 7 8 9 9 10 11 11 14 15 15 13 8 346 304 254 232 225 221
201 221 244 244 290 25 21 14 10 9 3 359 360 3 3 2 1 359 357 357 357 357 358 359 2 4 6 7 7 7 9 10 12 13 13 11 8 0 328 277 244 230 226
188 211 215 211 210 55 27 18 18 17 14 8 4 2 1 1 359 358 358 358 357 357 357 358 359 1 2 3 4 6 8 8 9 10 9 9 6 1 348 301 260 241 234
178 197 200 192 179 134 67 41 29 25 22 17 12 7 4 2 1 359 357 357 359 360 360 0 1 1 1 2 3 3 3 3 3 4 4 3 0 353 342 315 284 265 251
192 180 178 168 151 127 87 59 33 25 23 19 16 11 6 2 359 357 356 356 356 357 358 358 358 358 358 359 359 359 360 0 0 359 357 354 350 344 335 318 300 284 266
201 185 179 170 153 132 94 52 26 17 15 12 9 6 3 358 356 356 356 354 353 352 353 353 352 353 353 354 354 355 355 356 356 355 354 349 343 336 327 313 299 288 278
202 194 193 190 186 200 309 355 358 354 354 356 357 357 357 356 354 353 353 352 351 351 350 349 349 349 347 346 345 347 348 347 347 345 344 343 339 332 323 314 302 292 281
207 206 209 213 223 247 273 293 311 322 329 334 339 343 345 347 347 346 346 345 345 346 345 344 343 343 343 342 341 339 340 340 339 337 336 335 331 326 318 311 303 295 285
210 216 223 232 246 263 276 285 296 305 312 319 326 331 334 336 339 340 340 339 339 339 338 337 336 337 337 337 336 335 335 334 333 331 330 328 325 320 314 307 301 295 286
221 230 241 249 256 270 279 285 291 298 305 311 317 321 325 328 330 332 334 333 332 332 331 331 329 329 330 331 331 330 329 328 327 325 324 322 319 314 308 303 299 294 286
238 245 252 258 264 273 280 286 289 295 299 305 310 314 317 320 323 325 327 327 327 327 326 325 323 324 324 325 325 326 325 324 322 320 319 317 314 311 306 301 296 292 286
244 249 256 263 270 277 282 286 289 293 296 301 306 309 311 314 316 318 320 321 321 320 320 319 318 318 318 319 319 320 320 319 318 316 314 312 310 307 304 299 293 290 285
250 256 261 268 273 278 283 286 290 293 296 300 304 306 308 310 311 313 315 316 315 314 314 314 314 314 314 315 315 315 314 314 313 312 311 309 306 304 300 296 290 286 283
257 261 266 270 274 278 281 284 288 292 295 298 301 303 305 307 308 310 311 312 312 311 310 310 310 310 310 311 311 311 311 310 309 308 307 305 304 301 297 293 289 285 280
261 265 269 273 277 279 282 285 289 292 294 296 299 302 304 305 306 308 309 310 310 309 308 307 307 307 307 308 308 308 308 308 306 305 303 302 300 298 295 291 288 284 280
263 268 272 276 279 282 285 288 292 294 295 296 298 301 303 304 304 306 307 307 307 307 306 306 305 305 305 305 305 305 305 305 304 303 302 300 297 295 293 289 286 283 279
265 270 274 277 281 284 287 289 291 293 295 296 298 299 301 302 303 304 305 306 306 305 304 304 303 303 303 303 304 304 303 303 302 301 300 298 296 293 291 287 284 281 277
267 272 276 279 283 285 288 290 291 293 295 296 297 298 300 301 302 303 303 304 305 304 303 302 302 301 301 302 303 303 302 302 301 300 298 296 293 291 288 285 282 279 277
271 274 277 280 283 286 289 290 291 293 295 296 297 297 299 300 301 302 303 303 304 304 303 302 302 301 301 301 302 302 302 301 301 300 298 295 292 289 286 282 279 277 275
273 276 279 282 284 287 288 290 291 293 294 295 296 298 299 299 300 301 302 303 303 303 303 302 302 302 301 301 302 302 302 302 301 299 297 295 291 288 284 281 278 275 272
276 278 280 282 285 287 288 290 291 292 293 294 296 297 299 300 300 301 302 303 303 303 304 303 302 302 302 302 302 302 302 301 300 298 296 294 291 288 284 280 276 273 271
277 279 281 283 285 286 288 289 290 291 293 294 296 297 299 300 301 301 302 303 304 304 304 304 303 303 303 303 303 302 301 301 300 298 296 294 291 288 284 279 275 272 271
278 279 281 283 285 286 287 288 289 291 292 294 295 297 298 299 300 301 302 303 304 304 305 305 305 304 304 304 303 302 301 301 300 297 296 294 291 288 284 279 274 270 270
Height
5879 5879 5879 5879 5878 5878 5877 5876 5876 5874 5873 5872 5871 5869 5868 5866 5864 5861 5859 5857 5854 5851 5849 5846 5842 5839 5836 5832 5829 5825 5822 5820 5817 5816 5815 5814 5814 5814 5814 5815 5817 5819 5822
5878 5878 5878 5878 5877 5877 5876 5876 5875 5874 5873 5872 5870 5869 5867 5865 5863 5861 5858 5856 5854 5851 5848 5845 5842 5839 5835 5832 5829 5825 5822 5820 5818 5816 5814 5814 5814 5813 5814 5814 5816 5817 5820
5877 5877 5877 5877 5877 5876 5875 5875 5874 5873 5872 5871 5870 5868 5866 5865 5863 5861 5858 5856 5853 5850 5848 5845 5842 5839 5835 5832 5829 5826 5823 5821 5818 5817 5815 5814 5813 5813 5813 5814 5815 5816 5818
5876 5876 5876 5876 5876 5875 5875 5874 5873 5872 5871 5870 5869 5867 5866 5864 5862 5860 5858 5855 5853 5850 5847 5845 5842 5839 5835 5832 5829 5826 5824 5821 5819 5817 5816 5815 5813 5813 5813 5813 5814 5815 5816
5875 5874 5874 5874 5875 5874 5874 5873 5872 5872 5871 5870 5868 5867 5865 5864 5862 5860 5858 5855 5853 5850 5847 5844 5842 5839 5836 5833 5830 5827 5824 5822 5820 5818 5816 5815 5814 5813 5813 5813 5813 5814 5815
5873 5873 5873 5873 5874 5873 5873 5873 5872 5871 5870 5869 5868 5866 5865 5863 5861 5859 5857 5855 5852 5850 5847 5844 5841 5839 5836 5833 5830 5827 5825 5822 5820 5818 5817 5815 5814 5813 5812 5812 5812 5813 5814
5873 5873 5873 5873 5873 5873 5872 5872 5872 5871 5870 5868 5867 5866 5864 5862 5861 5859 5856 5854 5852 5849 5846 5844 5841 5838 5836 5833 5830 5828 5825 5823 5820 5818 5817 5815 5814 5813 5812 5812 5812 5812 5812
5872 5872 5872 5872 5872 5872 5872 5871 5871 5870 5869 5868 5867 5865 5863 5862 5860 5858 5856 5853 5851 5848 5846 5843 5841 5838 5835 5833 5830 5828 5825 5823 5820 5818 5817 5815 5814 5813 5812 5812 5811 5811 5811
5871 5871 5871 5871 5872 5871 5871 5871 5871 5870 5869 5867 5866 5865 5863 5861 5859 5857 5855 5852 5850 5847 5845 5842 5840 5837 5835 5832 5830 5827 5825 5822 5820 5818 5816 5815 5813 5812 5811 5810 5810 5810 5809
5870 5870 5870 5870 5871 5870 5870 5870 5870 5869 5868 5867 5866 5864 5862 5860 5858 5856 5854 5851 5848 5846 5843 5841 5839 5836 5834 5831 5829 5827 5824 5822 5820 5817 5815 5814 5812 5811 5810 5809 5808 5807 5807
5868 5869 5869 5869 5869 5869 5869 5869 5869 5868 5867 5866 5865 5863 5861 5859 5857 5855 5852 5849 5847 5844 5841 5839 5837 5834 5832 5830 5827 5825 5823 5821 5818 5816 5814 5812 5810 5809 5808 5806 5805 5804 5804
5867 5867 5868 5868 5868 5868 5868 5868 5867 5867 5866 5864 5863 5861 5860 5857 5855 5853 5850 5847 5844 5842 5839 5836 5834 5832 5830 5828 5825 5823 5821 5819 5816 5814 5812 5810 5808 5806 5804 5803 5802 5801 5800
5865 5866 5866 5867 5867 5867 5866 5866 5866 5865 5864 5862 5861 5859 5857 5855 5853 5850 5847 5845 5842 5839 5836 5833 5831 5829 5827 5825 5822 5820 5818 5816 5813 5811 5809 5807 5804 5802 5801 5799 5798 5796 5795
5863 5864 5864 5865 5865 5864 5864 5864 5863 5862 5861 5860 5858 5856 5855 5852 5850 5847 5844 5841 5838 5836 5833 5830 5828 5826 5823 5821 5819 5816 5814 5812 5809 5807 5805 5802 5800 5798 5796 5794 5792 5791 5790
5861 5861 5862 5862 5862 5862 5861 5861 5860 5859 5858 5856 5855 5853 5851 5849 5846 5844 5841 5838 5835 5831 5829 5826 5823 5821 5819 5817 5815 5812 5810 5807 5805 5802 5799 5796 5794 5792 5789 5787 5786 5784 5783
5858 5858 5859 5859 5859 5858 5858 5857 5857 5855 5854 5853 5851 5849 5847 5845 5842 5839 5836 5833 5830 5827 5824 5821 5819 5816 5814 5811 5809 5807 5804 5801 5799 5796 5793 5790 5787 5784 5782 5780 5778 5777 5775
5855 5855 5855 5855 5855 5855 5854 5853 5853 5851 5850 5848 5846 5845 5842 5840 5837 5834 5831 5828 5824 5821 5818 5815 5812 5810 5807 5805 5802 5800 5797 5794 5791 5788 5785 5782 5778 5775 5773 5771 5769 5768 5766
5851 5851 5851 5851 5851 5850 5850 5849 5848 5846 5845 5843 5841 5839 5837 5834 5831 5828 5825 5822 5818 5815 5812 5808 5806 5803 5800 5797 5794 5792 5789 5785 5782 5778 5775 5771 5768 5764 5762 5761 5759 5757 5756
5846 5847 5847 5846 5846 5845 5845 5844 5842 5841 5839 5837 5835 5833 5830 5828 5825 5822 5818 5815 5811 5808 5804 5801 5798 5794 5791 5788 5785 5782 5779 5775 5771 5767 5763 5759 5755 5752 5749 5747 5746 5745 5744
5842 5842 5841 5841 5841 5840 5839 5838 5836 5835 5833 5830 5828 5826 5823 5821 5817 5814 5810 5807 5803 5799 5796 5792 5788 5785 5781 5777 5773 5770 5766 5763 5759 5754 5749 5744 5740 5737 5734 5732 5731 5730 5729
5836 5836 5836 5835 5834 5833 5832 5831 5829 5827 5825 5823 5821 5818 5815 5812 5809 5806 5802 5798 5794 5790 5786 5782 5778 5773 5769 5765 5760 5756 5751 5747 5743 5739 5734 5729 5724 5721 5718 5715 5714 5713 5712
5830 5830 5829 5828 5827 5826 5825 5823 5822 5820 5817 5815 5812 5810 5806 5803 5800 5796 5792 5788 5784 5779 5775 5770 5766 5761 5756 5751 5746 5741 5736 5730 5726 5722 5717 5712 5708 5704 5700 5698 5696 5695 5694
5824 5823 5822 5821 5820 5818 5817 5815 5813 5811 5808 5806 5803 5800 5797 5793 5789 5785 5781 5777 5772 5767 5763 5758 5753 5748 5742 5736 5730 5725 5719 5713 5708 5703 5699 5694 5689 5686 5683 5680 5678 5677 5676
5816 5815 5814 5813 5811 5810 5808 5806 5804 5802 5799 5796 5793 5790 5786 5782 5778 5774 5769 5765 5760 5754 5749 5744 5739 5733 5727 5720 5714 5708 5702 5697 5691 5685 5681 5676 5671 5667 5663 5661 5659 5658 5657
5807 5807 5806 5804 5803 5801 5799 5796 5794 5791 5789 5786 5782 5779 5775 5771 5767 5762 5757 5752 5746 5740 5734 5729 5723 5717 5711 5704 5697 5690 5685 5678 5672 5666 5662 5657 5652 5648 5644 5641 5640 5639 5638
5798 5797 5796 5794 5793 5791 5788 5786 5783 5780 5778 5774 5771 5767 5763 5759 5754 5749 5744 5738 5732 5726 5719 5712 5706 5699 5693 5686 5679 5672 5666 5659 5652 5647 5642 5637 5632 5628 5625 5622 5621 5621 5620